SCP
0 0 0 0 0 0 0 0 0 0 0 0 0 0 0 0 0 0 0 0 0 0 0 0 0 0 0 0 0 0 0 0 0 0 0 0 0 0 0 0 0 0 0 0
0 0 0 0 0 0 0 0 0 0 0 0 0 0 0 0 0 0 0 0 0 0 0 0 0 0 0 0 0 0 0 0 0 0 0 0 0 0 0 0 0 0 0 0
0 0 0 0 0 0 0 0 0 0 0 0 0 0 0 0 0 0 0 0 0 0 0 0 0 0 0 0 0 0 0 0 0 0 0 0 0 0 0 0 0 0 0 0
0 0 0 0 0 0 0 0 0 0 0 0 0 0 0 0 -0 -0 -0 0 0 0 0 0 0 0 0 0 0 0 0 0 0 0 0 0 0 0 0 0 0 0 0 0
0 0 0 0 0 0 0 0 0 0 0 0 0 0 0 -0 -0 0 -0 0 0 0 0 0 0 0 0 0 0 0 0 0 0 0 0 0 0 0 0 0 0 0 0 0
0 0 0 0 0 0 0 0 0 0 0 0 0 0 0 -0 0 0 0 0 0 0 0 0 0 0 0 0 0 0 0 0 0 0 0 0 0 0 0 0 0 0 0 0
0 0 0 0 0 0 0 0 0 0 0 0 0 0 0 -0 -0 0 0 0 0 0 0 0 0 0 0 0 0 0 0 0 0 0 0 0 0 0 0 0 0 0 0 0
0 0 0 0 0 0 0 0 0 0 0 0 0 0 0 -0 -0 -0 -0 0 0 0 0 0 0 0 0 0 0 0 0 0 0 0 0 0 0 0 0 0 0 0 0 0
0 0 0 0 0 0 0 0 0 0 0 0 0 0 0 -0 -0 -0 -0 0 0 0 0 0 0 0 0 0 0 0 0 0 0 0 0 0 0 0 0 0 0 0 0 0
0 0 0 0 0 0 0 0 0 0 0 0 0 0 0 -0 -0 -0 0 0 0 0 0 0 0 0 0 0 0 0 0 0 0 0 0 0 0 0 0 0 0 0 0 0
0 0 0 0 0 0 0 0 0 0 0 0 0 0 0 -0 -0 -0 0 0 0 0 0 0 0 0 0 0 0 0 0 0 0 0 0 0 0 0 0 0 0 0 0 0
0 0 0 0 0 0 0 0 0 0 0 0 0 0 0 -0 -0 -0 0 0 0 0 0 0 0 0 0 0 0 0 0 0 0 0 0 0 0 0 0 0 0 0 0 0
0 0 0 0 0 0 0 0 0 0 0 0 0 0 0 0 -0 -0 0 0 0 0 0 0 0 0 0 0 0 0 0 0 0 0 0 0 0 0 0 0 0 0 0 0
0 -0 -0 -0 -0 -0 0 0 0 0 0 0 0 0 0 0 -0 -0 0 0 0 0 0 0 0 0 0 0 0 0 0 0 0 0 0 0 0 0 0 0 0 0 0 0
-0 -0 -0 -0 -0 -0 0 0 -0 0 0 0 0 0 0 0 -0 -0 0 0 0 0 0 0 0 0 0 0 0 0 0 0 0 0 0 0 0 0 0 0 0 0 0 0
0 0 -0 -0 -0 0 0 0 0 0 0 0 0 0 0 0 0 0 0 0 0 0 0 0 0 0 0 0 0 0 0 0 0 0 0 0 0 0 0 0 0 0 0 0
0 0 0 0 0 -0 0 0 0 0 0 0 0 0 0 0 0 0 0 0 0 0 0 0 0 0 0 0 0 0 0 0 0 0 0 0 0 0 0 0 0 0 0 0
0 0 0 0 -0 -0 -0 0 0 0 0 0 0 0 0 0 0 0 0 0 0 0 0 0 0 0 0 0 0 0 0 0 0 0 0 0 0 0 0 0 0 0 0 0
0 0 0 0 -0 -0 -0 0 0 0 0 0 0 0 0 0 0 0 0 0 0 0 0 0 0 0 0 0 0 0 0 0 0 0 0 0 0 0 0 0 0 0 0 0
0 0 0 0 0 0 0 0 0 0 0 0 0 0 0 0 0 0 0 0 0 0 0 0 0 0 0 0 0 0 0 0 0 0 0 0 0 0 0 0 0 0 0 0
0 0 0 0 0 0 0 0 0 0 0 0 0 0 0 0 0 0 0 0 0 0 0 0 0 0 0 0 0 0 0 0 0 0 0 0 0 0 0 0 0 0 0 0
0 0 0 0 0 0 0 0 0 0 0 0 0 0 0 0 0 0 0 0 0 0 0 0 0 0 0 0 0 0 0 0 0 0 0 0 0 0 0 0 0 0 0 0
0 0 0 0 0 0 0 0 0 0 0 0 0 0 0 0 0 0 0 0 0 0 0 0 0 0 0 0 0 0 0 0 0 0 0 0 0 0 0 0 0 0 0 0
0 0 0 0 0 0 0 0 0 0 0 0 0 0 0 0 0 0 0 0 0 0 0 0 0 0 0 0 0 0 0 0 0 0 0 0 0 0 0 0 0 0 0 0
0 0 0 0 0 0 0 0 0 0 0 0 0 0 0 0 0 0 0 0 0 0 0 0 0 0 0 0 0 0 0 0 0 0 0 0 0 0 0 0 0 0 0 0
0 0 0 0 0 0 0 0 0 0 0 0 0 0 0 0 0 0 0 0 0 0 0 0 0 0 0 0 0 0 0 0 0 0 0 0 0 0 0 0 0 0 0 0
0 0 0 0 0 0 0 0 0 0 0 0 0 0 0 0 0 0 0 0 0 0 0 0 0 0 0 0 0 0 0 0 0 0 0 0 0 0 0 0 0 0 0 0
Wind_Speed
11 11 9 10 12 13 13 12 10 11 13 11 7 3 1 1 0 2 3 4 5 6 6 6 6 7 7 8 8 9 10 11 11 10 10 10 10 9 9 9 8 8 8 8
10 9 9 11 13 15 16 16 16 15 14 7 6 1 0 1 1 2 3 3 4 5 6 7 8 8 7 7 8 9 9 9 9 10 10 10 10 9 9 8 8 8 8 8
7 8 8 10 11 12 13 13 13 15 11 6 5 3 1 1 2 2 2 3 4 5 6 7 8 8 9 8 8 8 9 9 10 10 10 10 10 10 9 9 8 8 8 8
6 6 8 6 3 6 8 8 7 9 7 6 6 4 2 1 1 0 1 2 3 3 3 4 6 7 7 8 8 9 9 9 9 10 10 10 10 10 9 8 8 8 8 8
4 6 8 6 3 5 6 7 5 6 6 7 7 4 2 3 3 2 2 2 2 2 2 3 6 8 8 8 8 9 9 10 10 10 11 11 11 10 8 8 8 7 7 8
5 5 6 3 6 5 4 5 4 5 5 6 5 3 4 7 6 5 4 2 0 1 2 3 4 7 9 9 9 10 9 9 10 10 11 11 11 9 7 8 8 7 7 7
8 7 6 4 6 3 1 3 6 5 4 5 4 4 6 7 6 5 5 4 2 1 2 3 4 6 7 8 9 9 8 8 9 9 10 10 9 8 9 8 8 7 7 6
6 7 7 3 3 1 3 5 6 5 5 6 7 7 7 6 6 5 4 3 2 0 1 2 5 6 7 7 7 8 8 8 9 9 8 9 10 9 9 9 9 8 7 6
5 6 5 4 3 3 4 5 5 5 7 7 7 7 7 7 6 5 4 3 2 1 1 2 4 6 7 6 7 9 9 9 9 9 8 9 10 10 9 8 8 7 7 6
7 8 8 7 5 5 5 6 6 6 7 7 7 8 7 7 5 5 4 3 2 1 2 3 3 4 5 6 8 10 10 9 9 9 9 8 7 7 8 8 8 7 7 7
9 9 8 7 5 5 6 6 7 8 7 7 7 8 7 7 6 5 5 4 3 3 4 5 4 4 5 7 9 9 10 9 9 8 9 8 6 5 6 5 8 9 8 8
9 8 8 9 8 9 8 8 8 8 9 8 7 8 8 7 6 5 5 4 3 4 4 4 4 5 6 7 9 10 10 10 8 8 8 8 8 6 7 7 9 9 9 8
11 10 10 10 10 8 9 9 8 8 9 10 9 7 8 7 6 6 5 5 4 4 4 4 4 5 6 7 8 9 10 10 8 8 8 8 8 9 8 7 10 11 12 12
9 9 11 9 9 8 9 9 9 9 9 9 8 7 7 7 6 6 5 5 4 4 4 4 4 5 6 7 8 8 9 10 10 8 8 8 8 8 8 9 8 5 7 12
10 9 10 10 10 10 9 8 9 9 8 8 7 6 6 7 7 6 5 4 3 4 4 5 5 5 5 6 8 9 9 8 8 8 7 8 8 8 7 8 8 7 6 7
9 9 9 10 11 10 9 9 9 9 8 8 7 7 7 6 6 5 5 4 4 5 5 5 6 5 6 7 8 7 7 11 10 8 8 8 8 8 8 8 8 7 7 6
9 10 9 10 10 10 10 10 9 9 9 9 8 7 6 5 5 5 4 3 4 4 4 5 5 5 6 7 8 7 8 9 12 9 7 8 8 8 8 8 7 7 6 7
9 10 10 10 10 11 11 10 9 9 9 9 7 6 6 6 6 5 4 2 2 2 3 4 5 6 6 7 7 7 7 8 8 8 7 7 7 7 8 8 8 8 6 7
9 10 11 11 11 11 10 10 9 8 8 7 7 6 6 6 5 4 3 3 4 4 3 5 8 7 6 7 8 7 8 9 8 7 7 10 9 7 7 8 8 7 7 6
9 10 10 10 11 10 10 8 7 7 7 6 5 5 5 4 3 3 3 2 2 2 4 6 7 6 6 8 9 7 8 9 9 8 8 8 8 7 7 7 8 7 7 6
11 11 10 10 10 9 8 7 7 7 6 4 4 4 3 2 2 3 3 2 2 4 6 8 6 5 6 7 9 7 8 8 9 8 8 8 8 8 7 7 7 7 6 6
10 10 10 10 9 8 6 6 6 5 4 3 3 3 3 3 3 3 2 2 3 6 5 5 5 7 9 9 6 7 7 8 8 7 7 7 8 8 7 7 7 6 6 5
9 9 9 9 8 7 6 4 4 3 2 2 3 4 4 3 3 4 3 3 4 7 5 4 8 12 12 7 6 7 8 8 7 7 7 7 7 7 7 7 6 6 6 5
9 9 8 8 6 4 4 3 2 0 2 2 2 3 4 4 3 2 4 7 8 8 6 9 13 14 12 6 6 7 7 7 7 7 7 7 6 6 6 6 6 5 5 6
8 7 7 6 4 2 2 1 2 3 3 3 4 4 3 3 4 5 5 7 10 10 7 10 14 13 8 6 7 7 7 7 7 7 7 7 6 6 6 6 6 5 5 5
7 6 5 5 3 2 1 1 1 2 3 4 4 4 5 5 6 6 6 7 9 10 7 6 7 9 6 7 7 8 7 8 8 7 7 6 7 6 6 6 7 5 5 4
6 5 4 3 3 2 1 2 2 3 3 4 5 5 5 6 6 7 8 7 7 7 6 6 6 6 7 7 8 8 7 7 7 6 6 6 6 5 6 6 5 5 4 4
Wind_Direction
278 277 263 252 247 241 235 231 236 250 255 263 273 265 191 172 151 135 146 157 163 166 165 163 165 166 166 167 165 163 166 171 175 172 168 167 169 170 170 168 167 164 164 167
279 274 271 266 248 237 236 234 239 257 264 266 273 288 130 157 168 167 171 176 175 169 168 170 172 170 166 166 164 161 166 170 165 163 163 165 166 163 161 162 162 161 166 166
275 283 286 259 240 229 229 230 233 245 258 289 301 311 270 195 194 186 200 197 192 186 180 178 176 170 169 165 158 161 165 165 163 162 163 162 159 160 163 164 159 161 164 163
276 278 242 248 268 241 234 240 248 257 274 292 294 293 301 9 13 299 230 223 206 192 184 176 165 158 156 154 157 161 163 165 164 162 161 157 157 162 162 157 159 162 162 161
255 262 269 267 264 253 242 251 280 279 288 313 315 307 290 358 345 319 287 240 205 192 181 162 159 154 151 155 158 162 168 169 167 162 160 159 161 161 155 151 153 155 156 157
242 254 254 304 326 308 246 250 320 308 313 324 337 294 301 336 332 330 333 335 138 140 133 144 156 150 154 163 165 171 172 169 163 161 161 162 160 153 145 145 147 145 147 153
233 246 267 309 323 347 206 288 330 324 327 324 299 284 308 323 327 329 330 335 355 126 151 166 155 152 163 169 177 171 160 158 157 157 158 155 148 143 142 140 140 143 142 140
222 229 245 330 2 6 315 330 331 338 333 321 310 309 310 313 319 325 330 334 341 345 166 160 157 160 172 181 172 153 150 151 152 152 149 146 143 143 145 145 145 145 139 135
227 245 282 304 294 293 312 321 326 330 326 325 320 315 311 307 308 306 305 299 287 232 192 173 170 172 180 178 154 148 148 150 149 144 144 146 148 149 148 151 151 152 151 152
267 269 284 288 302 309 320 317 319 319 317 317 313 309 305 302 297 292 291 284 270 235 203 200 192 190 182 162 152 151 152 151 147 146 144 143 146 151 155 159 157 156 158 157
271 278 287 283 292 303 305 315 318 317 313 308 304 302 302 299 294 287 282 273 247 221 216 211 196 188 170 159 153 154 153 150 147 146 145 141 136 142 152 161 164 161 165 162
260 273 280 290 306 310 310 308 306 306 306 302 293 289 292 291 288 281 274 268 249 231 220 209 190 182 171 164 160 157 154 153 151 148 145 141 133 109 89 116 129 134 138 142
264 277 279 282 290 296 297 297 299 296 294 294 292 287 287 285 282 274 265 254 238 223 215 203 190 182 176 169 165 164 160 157 152 150 149 148 147 142 130 101 101 117 129 135
272 277 276 277 283 290 290 293 293 289 283 281 284 285 286 284 282 272 260 252 239 217 205 198 191 188 179 167 162 160 156 154 153 153 151 152 152 149 146 143 137 121 123 134
272 272 274 283 285 283 282 283 285 284 283 283 283 281 280 277 274 270 261 250 233 213 202 190 186 186 171 163 160 157 155 152 149 146 146 146 144 142 140 140 137 134 126 130
276 274 272 275 277 279 280 277 277 279 281 281 281 280 278 274 273 271 260 235 210 207 200 186 185 179 163 158 154 152 150 147 146 146 145 145 144 143 143 142 142 146 150 147
276 273 271 273 275 277 276 273 273 276 277 279 278 275 272 270 273 271 264 243 214 207 193 179 173 161 154 155 152 149 144 144 143 142 146 148 147 147 146 145 147 148 150 156
273 273 273 274 275 276 275 272 270 271 270 274 272 265 260 256 254 255 248 216 167 155 158 154 149 143 145 146 144 143 143 144 144 144 142 143 142 141 142 143 145 144 142 150
286 281 280 278 275 272 270 267 266 266 268 265 257 253 254 250 244 235 202 173 167 164 157 142 140 137 139 142 139 138 137 137 135 135 136 139 136 138 141 142 144 145 146 148
301 296 290 286 280 272 269 267 264 263 260 252 244 239 241 239 219 196 168 165 169 149 139 136 132 132 135 139 134 136 138 139 139 138 137 139 140 141 141 141 142 143 146 149
306 302 299 295 288 281 273 268 262 260 256 235 221 218 220 216 173 153 142 135 109 120 131 132 129 130 130 133 128 131 135 137 138 139 139 139 139 139 139 139 140 142 146 146
306 304 301 299 295 288 280 270 261 256 243 213 193 179 168 160 143 126 113 129 135 129 125 125 124 128 131 127 126 128 129 130 131 133 135 137 139 140 140 139 140 142 144 145
307 307 304 300 294 290 286 276 265 239 198 182 177 169 162 160 153 144 133 122 131 125 118 120 129 128 122 116 120 123 123 124 126 129 131 132 134 135 137 138 139 141 143 143
311 311 309 306 299 294 292 300 306 49 118 117 130 137 138 134 112 88 108 126 123 115 111 123 125 122 114 110 112 113 115 116 117 119 122 123 125 127 131 135 137 138 138 139
311 310 310 312 310 301 298 351 62 78 87 90 88 90 97 106 116 116 115 119 120 112 113 120 117 111 105 105 106 106 107 109 113 116 118 122 125 127 129 131 132 134 136 139
314 315 314 311 310 311 328 90 97 96 102 101 90 84 86 93 102 107 109 106 106 105 102 103 105 102 100 102 102 102 103 107 106 106 111 114 117 120 122 123 125 130 134 137
317 321 325 339 347 354 34 75 87 90 97 105 99 91 93 97 99 101 101 101 100 97 94 92 92 95 98 98 98 96 96 97 99 102 105 107 110 113 117 120 122 126 129 133